Powrót do katalogu

THORAD AGENA D DEB

AktywnySSO
NORAD 5150·DEBRIS·🇺🇸 United States

Wystrzelony Apr 8, 1970 z Vandenberg Space Force Base

Loading…

Następne Przeloty (najbliższe 24 godziny)

TLE

ŚwieżeSource: Space-Track

Epoka: Sep 14, 2026, 05:23 UTC

1 05150U 70025JT  26257.22430612  .00001253  00000-0  93389-3 0  9993
2 05150  99.4665 344.8723 0088233 214.7142 144.8241 13.95096458822633

Śledź THORAD AGENA D DEB w czasie rzeczywistym z AllMySat

Download on the App Store